Pittsburgh Allegheny Co., PA

10:53 PM EDT on October 18, 2017 (GMT -0400)
Allegheny County

Weather History for KAGC - November, 2012

Change the Weather History Date:

Friday, November 9, 2012

  Actual Average Record
Temperature  
Mean Temperature 41 °F -  
Max Temperature 54 °F 52 °F 72 °F (1999)
Min Temperature 28 °F 34 °F 18 °F (1991)
Degree Days  
Heating Degree Days 24    
Moisture  
Dew Point 29 °F    
Average Humidity 65    
Maximum Humidity 93    
Minimum Humidity 43    
Precipitation  
Precipitation 0.00 in - - ()
Sea Level Pressure  
Sea Level Pressure 30.23 in    
Wind  
Wind Speed 5 mph (SSW)    
Max Wind Speed 12 mph    
Max Gust Speed -    
Visibility 8 miles    
Events      
Averages and records for this station are not official NWS values.
T = Trace of Precipitation, MM = Missing Value Source: NWS Daily Summary

Daily Weather History Graph

Daily Weather History Graph

Search for Another Location

Airport or City:

Trip Planner

Search our weather history database for the weather conditions in past years. The results will help you decide how hot, cold, wet, or windy it might be!

Date:

Astronomy

Nov. 09, 2012 Rise Set
Actual Time 6:59 AM EST 5:07 PM EST
Civil Twilight 6:30 AM EST 5:36 PM EST
Nautical Twilight 5:57 AM EST 6:08 PM EST
Astronomical Twilight 5:25 AM EST 6:40 PM EST
Moon 1:55 AM EST (11/9) 2:20 PM EST (11/9)
Length of Visible Light 11h 05m
Length of Day
10h 08m
Waning Crescent, 23% of the Moon is Illuminated
Nov 9
Waning Crescent
Nov 13
New
Nov 20
First Quarter
Nov 28
Full
Dec 6
Last Quarter

Hourly Weather History & Observations

Time (EST) Temp. Windchill Dew Point Humidity Pressure Visibility Wind Dir Wind Speed Gust Speed Precip Events Conditions
12:53 AM 35.1 °F 31.0 °F 27.0 °F 72% 30.19 in 10.0 mi WSW 4.6 mph - N/A   Clear
1:53 AM 34.0 °F 29.8 °F 27.0 °F 75% 30.19 in 9.0 mi WSW 4.6 mph - N/A   Clear
2:53 AM 33.1 °F 28.7 °F 26.1 °F 75% 30.20 in 8.0 mi West 4.6 mph - N/A   Clear
3:53 AM 32.0 °F - 26.1 °F 79% 30.21 in 9.0 mi Calm Calm - N/A   Clear
4:53 AM 33.1 °F 30.0 °F 27.0 °F 78% 30.23 in 9.0 mi WSW 3.5 mph - N/A   Clear
5:53 AM 30.9 °F 25.2 °F 27.0 °F 85% 30.25 in 6.0 mi South 5.8 mph - N/A   Clear
6:28 AM 28.4 °F 22.2 °F 26.6 °F 93% 30.21 in 2.5 mi South 5.8 mph - N/A   Clear
6:36 AM 28.4 °F 22.2 °F 26.6 °F 93% 30.21 in 3.0 mi South 5.8 mph - N/A   Clear
6:53 AM 28.9 °F 22.8 °F 25.0 °F 85% 30.27 in 3.0 mi SSE 5.8 mph - N/A   Clear
7:53 AM 30.9 °F 24.3 °F 27.0 °F 85% 30.28 in 6.0 mi South 6.9 mph - N/A   Clear
8:53 AM 34.0 °F 28.8 °F 28.0 °F 79% 30.28 in 6.0 mi South 5.8 mph - N/A   Haze
9:53 AM 39.0 °F 34.0 °F 30.0 °F 70% 30.29 in 8.0 mi South 6.9 mph - N/A   Clear
10:53 AM 43.0 °F 40.3 °F 30.9 °F 62% 30.28 in 10.0 mi SSW 4.6 mph - N/A   Clear
11:53 AM 48.9 °F - 32.0 °F 52% 30.26 in 7.0 mi SW 6.9 mph - N/A   Clear
12:53 PM 51.1 °F - 32.0 °F 48% 30.23 in 10.0 mi WSW 8.1 mph - N/A   Clear
1:53 PM 53.1 °F - 32.0 °F 45% 30.21 in 10.0 mi West 6.9 mph - N/A   Clear
2:53 PM 54.0 °F - 32.0 °F 43% 30.19 in 10.0 mi WSW 5.8 mph - N/A   Clear
3:53 PM 53.1 °F - 32.0 °F 45% 30.21 in 10.0 mi WSW 11.5 mph - N/A   Clear
4:53 PM 52.0 °F - 30.9 °F 45% 30.21 in 10.0 mi West 4.6 mph - N/A   Clear
5:53 PM 51.1 °F - 30.9 °F 46% 30.22 in 10.0 mi SW 3.5 mph - N/A   Clear
6:53 PM 48.0 °F - 30.9 °F 52% 30.22 in 10.0 mi SSW 6.9 mph - N/A   Clear
7:53 PM 48.0 °F - 30.0 °F 50% 30.21 in 10.0 mi SSW 8.1 mph - N/A   Clear
8:53 PM 46.9 °F - 30.0 °F 52% 30.22 in 10.0 mi SSW 8.1 mph - N/A   Clear
9:53 PM 44.6 °F 40.7 °F 30.2 °F 57% 30.18 in 10.0 mi SSW 6.9 mph - N/A   Clear
10:53 PM 42.1 °F 39.2 °F 30.0 °F 62% 30.22 in 10.0 mi South 4.6 mph - N/A   Clear
11:53 PM 43.0 °F 38.8 °F 30.0 °F 60% 30.21 in 10.0 mi South 6.9 mph - N/A   Clear